Regional Weather Roundup
Issued by NWS

Home | Current Version | Previous Version | Graphics & Text | Print | Product List | Glossary On
Versions: 1 2 3 4 5 6 7 8 9 10 11 12 13 14 15 16 17 18 19 20 21 22 23 24 25 26 27
000
ASUS45 KTFX 190010
RWRMT
MONTANA REGIONAL WEATHER ROUNDUP
NATIONAL WEATHER SERVICE GREAT FALLS MT
600 PM MDT FRI AUG 18 2017

NOTE: "FAIR" INDICATES FEW OR NO CLOUDS BELOW 12000 FEET WITH NO
SIGNIFICANT WEATHER AND/OR OBSTRUCTIONS TO VISIBILITY.

MTZ001>007-043-190100-
WEST OF THE DIVIDE

CITY           SKY/WX    TMP DP  RH WIND       PRES   REMARKS
KALISPELL      MOSUNNY   87  32  14 W15       29.88F
MISSOULA       SUNNY     89  29  11 W15G25    29.95F
BUTTE          SUNNY     83  21  10 NW10      30.08F
MULLAN PASS    MOSUNNY   70  30  22 W8G17     30.17S
ANACONDA         N/A     84  19   9 W13G21    30.04F
DEER LODGE       N/A     84  25  11 NW9       30.04F
EUREKA           N/A     84  34  16 MISG      29.88S
HAMILTON         N/A     84  28  13 W8        30.00S
LIBBY            N/A     86  37  17 SE7       29.90S
PLAINS           N/A     87  41  19 MISG      29.94F
RONAN            N/A     86  39  18 S5        29.99F
$$

MTZ008-052>055-190100-
SOUTHWEST MONTANA

CITY           SKY/WX    TMP DP  RH WIND       PRES   REMARKS
BOZEMAN        SUNNY     88  31  13 NE6       30.01F
DILLON         SUNNY     81  38  21 W14       30.05S
W YELLOWSTONE  SUNNY     77  28  16 SW14G23   30.21S
ENNIS          SUNNY     86  25  10 CALM      30.11F
THREE FORKS      N/A     90  26  10 SW6       29.98F
TWIN BRIDGES     N/A     88  41  19 CALM      30.02F
$$

MTZ009-010-012-014-046-048-049-054-190100-
EAST SLOPES AND CENTRAL MONTANA

CITY           SKY/WX    TMP DP  RH WIND       PRES   REMARKS
CUT BANK       MOSUNNY   82  32  16 SW24G30   29.88F
GREAT FALLS    SUNNY     89  25  10 SW15G30   29.90S
MALMSTROM AFB  SUNNY     89  27  11 SW20G29   29.89F
HELENA         CLOUDY    89  28  11 W12G20    29.95S HAZE
CHOTEAU          N/A     88  28  11 W10       29.92S
$$

MTZ011-013-016-021-045-047-050-051-190100-
NORTH CENTRAL MONTANA

CITY           SKY/WX    TMP DP  RH WIND       PRES   REMARKS
HAVRE          SUNNY     92  33  12 SW16G23   29.80F
LEWISTOWN      SUNNY     85  31  14 S7        29.94F
N BAR RANCH      N/A     84  28  13 NW10      29.99S
CHINOOK          N/A     88  39  18 SW9       29.80S
GEYSER           N/A     87  21   9 W22G30    29.92F
JUDITH GAP       N/A     83  31  15 N9        29.98S
$$

MTZ017>020-022>027-061-062-190100-
NORTHEAST MONTANA

CITY           SKY/WX    TMP DP  RH WIND       PRES   REMARKS
GLASGOW        SUNNY     89  34  14 SE8       29.82F
JORDAN           N/A     90  30  11 SW5       29.84F
SIDNEY         SUNNY     86  48  26 NE6       29.86F
WOLF POINT     SUNNY     90  38  16 SW6       29.83F
MALTA          SUNNY     91  37  15 SW12      29.80S
PLENTYWOOD       N/A     84  46  26 S5        29.87S
POPLAR           N/A     88  43  20 SW7       29.85F
SCOBEY           N/A     86  42  21 CALM      29.86F
$$

MTZ028>42-056>058-190100-
SOUTHCENTRAL AND SOUTHEAST MONTANA

CITY           SKY/WX    TMP DP  RH WIND       PRES   REMARKS
BAKER          SUNNY     87  36  16 NW3       29.93F
BILLINGS       SUNNY     92  24   8 SW15G24   29.92F
LIVINGSTON     SUNNY     88  28  11 W13       30.00S
MILES CITY     SUNNY     91  32  12 S9        29.86F
BIG TIMBER     SUNNY     88  27  11 W17       30.01S
EKALAKA          N/A     85  35  16 NW2       29.95F
HARLOWTON        N/A     87  22   9 MISG      29.97S
LAUREL           N/A     91  33  12 SW16      29.93S
$$

REGIONAL REPORTS...DAKOTAS

CITY           SKY/WX    TMP DP  RH WIND       PRES   REMARKS
WILLISTON      SUNNY     83  50  31 SE5       29.87F
MINOT          SUNNY     81  50  33 W8        29.87S
DICKINSON      SUNNY     83  48  29 S5        29.91S
BEACH            N/A     86  34  15 W9G15     29.93F
CROSBY           N/A     82  41  23 W8        29.87S
TIOGA            N/A     79  50  36 SW7G14    29.90F
WATFORD CITY     N/A     84  46  26 CALM      29.88S
BISMARCK       SUNNY     80  52  37 NW5       29.91S
GRAND FORKS    MOSUNNY   80  59  48 NW5       29.83R
FARGO          MOSUNNY   78  62  57 S5        29.87R
BUFFALO SD       N/A     86  43  22 N7        29.89S
RAPID CITY     SUNNY     85  42  22 NW3       29.99S
$$

REGIONAL REPORTS...WYOMING/IDAHO/WASHINGTON

CITY           SKY/WX    TMP DP  RH WIND       PRES   REMARKS
GILLETTE       SUNNY     87  30  13 CALM      30.00F
SHERIDAN       SUNNY     89  38  16 E3        29.97F
BUFFALO WY     SUNNY     87  30  13 VRB6      30.05F
YELLOWSTONE LA   N/A     71  26  18 VRB7G16   30.32S
IDAHO FALLS    SUNNY     84  39  20 S14       30.10F
SALMON         SUNNY     88  39  17 NW3       29.99F HAZE
BOISE          SUNNY     91  30  11 N9        30.00F
SPOKANE        PTSUNNY   85  34  16 W15       29.96F
$$

REGIONAL REPORTS...ALBERTA

CITY           SKY/WX    TMP DP  RH WIND       PRES   REMARKS
EDMONTON       SUNNY     66  54  63 N13       29.75S
CALGARY        MOSUNNY   84  32  15 W10       29.74F
LETHBRIDGE     PTSUNNY   84  37  18 SW16      29.77F
MEDICINE HAT   PTSUNNY   88  41  19 W15G21    29.70F
$$

REGIONAL REPORTS...SASKATCHEWAN

CITY           SKY/WX    TMP DP  RH WIND       PRES   REMARKS
SWIFT CURRENT  SUNNY     88  41  19 SW10G21   29.76F
REGINA         MOSUNNY   82  41  23 SW5       29.81F
SASKATOON      PTSUNNY   79  46  31 SE6       29.77F
$$




USA.gov is the U.S. government's official web portal to all federal, state and local government web resources and services.